FW1633 Beechhurst NY US current weather conditions

sailwx.info

Wind from 202 at 2 knots gusting 5

Air temperature 11.1° C
Dewpoint 10.7° C

Last reported at 2019-Dec-09 23:02 UTC.
Time now 2019-Dec-09 23:42 UTC

Location: N 40°48' W 073°48'.
View on Google Maps.

See reports from other nearby stations

  
Tides and Currents Weather Stations Pressure Air Temp Water Temp Dewpoint Dewpoint Depression Visibility Wind Speed Wind Dir Waves Ship Positions
date/time (UTC)wind fromknots sea level pressurealtimeterstation pressurevisibilityair tempwater tempwave heightnotes
2019-Dec-09 23:02 202 2 gusting 5 11.1
2019-Dec-09 22:57 209 1 gusting 5 11.1
2019-Dec-09 22:52 205 1 gusting 6 11.1
2019-Dec-09 22:47 239 2 gusting 6 11.1
2019-Dec-09 22:42 203 2 gusting 6 11.1
2019-Dec-09 22:37 252 2 gusting 7 11.1
2019-Dec-09 22:32 238 2 gusting 7 11.1
2019-Dec-09 22:27 234 3 gusting 7 11.1
2019-Dec-09 22:22 165 2 gusting 7 11.1
2019-Dec-09 22:17 226 2 gusting 6 11.1
2019-Dec-09 22:12 219 3 gusting 6 11.7
2019-Dec-09 22:07 178 2 gusting 6 11.7
2019-Dec-09 22:02 217 2 gusting 8 11.7
2019-Dec-09 21:57 224 2 gusting 8 11.7
2019-Dec-09 21:52 226 2 gusting 6 11.7
2019-Dec-09 21:47 203 2 gusting 6 11.7
2019-Dec-09 21:42 217 2 gusting 6 11.1
2019-Dec-09 21:37 233 2 gusting 6 11.1
2019-Dec-09 21:32 165 1 gusting 3 11.1
2019-Dec-09 21:27 231 1 gusting 3 11.1
2019-Dec-09 21:22 248 11.1
2019-Dec-09 21:17 219 1 gusting 4 11.1
2019-Dec-09 21:15 233 1 gusting 4 11.1
2019-Dec-09 21:07 148 11.1
2019-Dec-09 21:03 150 0 gusting 4 11.1
2019-Dec-09 20:57 127 1 gusting 4 11.7
2019-Dec-09 20:52 156 1 gusting 3 11.7
2019-Dec-09 20:47 159 0 gusting 3 11.7
2019-Dec-09 20:42 240 0 gusting 6 11.7
2019-Dec-09 20:37 214 3 gusting 6 11.7
2019-Dec-09 20:32 221 2 gusting 5 11.7
2019-Dec-09 20:27 208 11.7
2019-Dec-09 20:22 230 1 gusting 6 11.7
2019-Dec-09 20:17 128 3 gusting 6 11.7
2019-Dec-09 20:12 210 2 gusting 6 11.7
2019-Dec-09 20:07 136 2 gusting 5 11.7
2019-Dec-09 20:02 221 3 gusting 6 11.7
2019-Dec-09 19:57 226 3 gusting 6 11.7
2019-Dec-09 19:52 171 2 gusting 5 11.7
2019-Dec-09 19:47 172 2 gusting 5 11.7
2019-Dec-09 19:42 207 1 gusting 5 11.7
2019-Dec-09 19:37 218 2 gusting 5 11.7
2019-Dec-09 19:32 239 1 gusting 6 11.7
2019-Dec-09 19:27 230 2 gusting 8 11.7
2019-Dec-09 19:17 210 1 gusting 6 11.7
2019-Dec-09 19:15 209 1 gusting 6 11.7
2019-Dec-09 19:07 151 3 gusting 9 11.7
2019-Dec-09 19:02 208 3 gusting 9 11.7
2019-Dec-09 18:57 234 3 gusting 6 11.7
2019-Dec-09 18:52 239 1 gusting 7 11.7
2019-Dec-09 18:47 243 4 gusting 7 11.7
2019-Dec-09 18:42 216 2 gusting 7 11.7
2019-Dec-09 18:37 229 3 gusting 7 11.7
2019-Dec-09 18:32 234 1 gusting 6 11.7
2019-Dec-09 18:27 221 3 gusting 6 11.7
2019-Dec-09 18:22 197 1 gusting 6 11.7
2019-Dec-09 18:17 233 3 gusting 8 11.7
2019-Dec-09 18:12 245 5 gusting 8 11.7
2019-Dec-09 18:07 182 3 gusting 6 11.7
2019-Dec-09 18:02 235 3 gusting 7 12.2
2019-Dec-09 17:57 200 2 gusting 7 12.2
2019-Dec-09 17:52 250 2 gusting 7 12.2
2019-Dec-09 17:47 232 2 gusting 5 12.2
2019-Dec-09 17:41 224 2 gusting 6 11.7
2019-Dec-09 17:30 202 3 gusting 6 11.7
2019-Dec-09 17:27 235 3 gusting 6 11.7
2019-Dec-09 17:22 212 1 gusting 6 11.7
2019-Dec-09 17:17 143 2 gusting 7 11.7
2019-Dec-09 17:12 166 1 gusting 6 11.7
2019-Dec-09 17:07 119 2 gusting 6 11.7
2019-Dec-09 17:02 156 2 gusting 8 11.7
2019-Dec-09 16:57 154 3 gusting 8 11.7
2019-Dec-09 16:52 201 2 gusting 6 11.7
2019-Dec-09 16:47 160 1 gusting 6 12.2
2019-Dec-09 16:42 221 3 gusting 6 12.2
2019-Dec-09 16:37 219 2 gusting 6 12.2
2019-Dec-09 16:32 223 3 gusting 10 11.7
2019-Dec-09 16:27 210 4 gusting 10 11.7
2019-Dec-09 16:22 249 5 gusting 11 12.2
2019-Dec-09 16:17 237 3 gusting 11 12.2
2019-Dec-09 16:12 205 5 gusting 13 12.2
2019-Dec-09 16:07 229 5 gusting 14 12.2
2019-Dec-09 16:02 248 6 gusting 14 12.2
2019-Dec-09 15:57 185 6 gusting 13 12.2
2019-Dec-09 15:52 250 6 gusting 13 12.2
2019-Dec-09 15:47 215 3 gusting 13 12.2
2019-Dec-09 15:42 210 6 gusting 17 12.2
2019-Dec-09 15:37 203 5 gusting 17 12.2
2019-Dec-09 15:32 224 6 gusting 14 12.2
2019-Dec-09 15:30 200 3 gusting 14 11.7
2019-Dec-09 15:22 173 4 gusting 14 12.2
2019-Dec-09 15:17 174 7 gusting 14 12.2
2019-Dec-09 15:12 119 4 gusting 12 11.7
2019-Dec-09 15:07 211 2 gusting 11 11.7
2019-Dec-09 15:00 229 5 gusting 11 11.7
2019-Dec-09 14:52 220 4 gusting 10 11.7
2019-Dec-09 14:47 120 3 gusting 8 11.7
2019-Dec-09 14:42 194 2 gusting 8 11.1
2019-Dec-09 14:37 217 4 gusting 9 10.6
2019-Dec-09 14:32 242 3 gusting 7 8.3
2019-Dec-09 14:27 236 0 gusting 3 8.3
2019-Dec-09 14:22 202 0 gusting 3 7.2
2019-Dec-09 14:17 062 1 gusting 6 6.7
2019-Dec-09 14:12 023 3 gusting 6 6.7
2019-Dec-09 14:07 066 3 gusting 5 6.1
2019-Dec-09 14:02 035 0 gusting 3 6.1
2019-Dec-09 14:00 357 0 gusting 8 6.1
2019-Dec-09 13:52 032 6 gusting 8 6.1
2019-Dec-09 13:47 049 6 gusting 8 6.1
2019-Dec-09 13:45 045 5 gusting 6 5.6
2019-Dec-09 13:37 041 5 gusting 7 6.1
2019-Dec-09 13:32 066 5 gusting 9 6.1
2019-Dec-09 13:27 043 7 gusting 9 6.1
2019-Dec-09 13:22 045 6 gusting 11 6.1
2019-Dec-09 13:17 046 7 gusting 11 6.1
2019-Dec-09 13:12 046 5 gusting 11 6.1
2019-Dec-09 13:07 057 9 gusting 12 5.6
2019-Dec-09 13:02 033 7 gusting 12 5.6
2019-Dec-09 12:57 053 8 gusting 10 5.6
2019-Dec-09 12:52 083 7 gusting 9 5.6
2019-Dec-09 12:47 056 7 gusting 8 5.6
2019-Dec-09 12:42 042 6 gusting 7 5.6
2019-Dec-09 12:37 042 5 gusting 7 5.6
2019-Dec-09 12:32 046 4 gusting 6 5.6
2019-Dec-09 12:27 037 5 gusting 7 5.6
2019-Dec-09 12:22 046 6 gusting 8 5.6
2019-Dec-09 12:17 060 6 gusting 8 5.6
2019-Dec-09 12:12 075 6 gusting 7 5.6
2019-Dec-09 12:07 058 4 gusting 6 5.6
2019-Dec-09 12:02 049 4 gusting 6 5.6
2019-Dec-09 12:00 041 3 gusting 6 5.0
2019-Dec-09 11:52 059 4 gusting 6 5.6
2019-Dec-09 11:47 087 3 gusting 8 5.6
2019-Dec-09 11:42 053 6 gusting 8 5.6
2019-Dec-09 11:37 050 6 gusting 9 5.6
2019-Dec-09 11:32 044 8 gusting 9 5.6
2019-Dec-09 11:27 047 6 gusting 7 5.0
2019-Dec-09 11:22 041 5 gusting 6 5.0
2019-Dec-09 11:17 054 4 gusting 6 5.0
2019-Dec-09 11:12 044 3 gusting 5 5.0
2019-Dec-09 11:07 046 3 gusting 5 5.0
2019-Dec-09 11:02 045 3 gusting 5 5.0
2019-Dec-09 10:57 041 3 gusting 5 5.0
2019-Dec-09 10:52 041 3 gusting 5 5.0
2019-Dec-09 10:47 056 3 gusting 5 5.0
2019-Dec-09 10:42 058 3 gusting 6 5.0
2019-Dec-09 10:32 069 4 gusting 5 5.0
2019-Dec-09 10:27 044 4 gusting 5 5.0
2019-Dec-09 10:22 039 3 gusting 5 5.0
2019-Dec-09 10:17 041 3 gusting 5 5.0
2019-Dec-09 10:15 041 3 gusting 5 4.4
2019-Dec-09 10:07 039 3 gusting 5 5.0
2019-Dec-09 10:02 040 3 gusting 5 5.0
2019-Dec-09 09:57 049 3 gusting 4 5.0
2019-Dec-09 09:52 046 3 gusting 5 5.0
2019-Dec-09 09:47 056 4 gusting 5 5.0
2019-Dec-09 09:45 043 3 gusting 5 5.0
2019-Dec-09 09:37 070 2 gusting 4 5.0
2019-Dec-09 09:32 052 2 gusting 3 5.0
2019-Dec-09 09:27 053 2 gusting 3 5.0
2019-Dec-09 09:22 051 2 gusting 5 5.0
2019-Dec-09 09:17 049 3 gusting 5 5.0
2019-Dec-09 09:12 078 2 gusting 5 5.0
2019-Dec-09 09:07 064 3 gusting 5 5.0
2019-Dec-09 09:02 049 2 gusting 5 5.0
2019-Dec-09 08:57 058 3 gusting 5 5.0
2019-Dec-09 08:52 090 1 gusting 6 5.0
2019-Dec-09 08:47 034 2 gusting 6 5.0
2019-Dec-09 08:42 061 0 gusting 4 5.0
2019-Dec-09 08:37 074 2 gusting 4 5.0
2019-Dec-09 08:32 050 2 gusting 4 5.0
2019-Dec-09 08:27 048 1 gusting 2 5.0
2019-Dec-09 08:22 058 1 gusting 4 5.0
2019-Dec-09 08:17 062 2 gusting 4 5.0
2019-Dec-09 08:15 053 4.4
2019-Dec-09 08:07 060 5.0
2019-Dec-09 08:02 051 5.0
2019-Dec-09 07:57 049 5.0
2019-Dec-09 07:52 049 4.4
2019-Dec-09 07:47 053 4.4
2019-Dec-09 07:42 072 4.4
2019-Dec-09 07:37 059 1 gusting 3 4.4
2019-Dec-09 07:32 066 1 gusting 3 5.0
2019-Dec-09 07:27 053 5.0
2019-Dec-09 07:22 046 5.0
2019-Dec-09 07:17 046 5.0
2019-Dec-09 07:12 046 5.0
2019-Dec-09 07:07 046 5.0
2019-Dec-09 07:02 046 5.0
2019-Dec-09 06:57 046 5.0
2019-Dec-09 06:52 046 5.0
2019-Dec-09 06:47 046 5.0
2019-Dec-09 06:42 046 5.0
2019-Dec-09 06:37 046 5.0
2019-Dec-09 06:32 046 5.0
2019-Dec-09 06:27 063 5.0
2019-Dec-09 06:22 063 5.0
2019-Dec-09 06:17 063 5.0
2019-Dec-09 06:12 094 5.0
2019-Dec-09 06:07 100 5.0
2019-Dec-09 06:02 219 5.0
2019-Dec-09 05:57 219 5.0
2019-Dec-09 05:52 219 5.0
2019-Dec-09 05:47 219 5.6
2019-Dec-09 05:45 219 5.0
2019-Dec-09 05:37 219 5.6
2019-Dec-09 05:32 219 5.0
2019-Dec-09 05:27 200 5.6
2019-Dec-09 05:22 206 5.6
2019-Dec-09 05:17 206 5.6
2019-Dec-09 05:12 217 5.6
2019-Dec-09 05:07 216 5.0
2019-Dec-09 05:02 216 5.0
2019-Dec-09 04:57 217 5.0
2019-Dec-09 04:52 217 5.0
2019-Dec-09 04:47 216 5.0
2019-Dec-09 04:42 217 5.0
2019-Dec-09 04:37 217 4.4
2019-Dec-09 04:32 217 4.4
2019-Dec-09 04:27 217 4.4
2019-Dec-09 04:22 216 4.4
2019-Dec-09 04:17 216 4.4
2019-Dec-09 04:12 216 4.4
2019-Dec-09 04:07 216 4.4
2019-Dec-09 04:02 216 3.9
2019-Dec-09 03:57 216 3.9
2019-Dec-09 03:52 224 3.9
2019-Dec-09 03:47 224 3.9
2019-Dec-09 03:42 224 3.9
2019-Dec-09 03:37 224 4.4
2019-Dec-09 03:32 133 4.4
2019-Dec-09 03:27 132 4.4
2019-Dec-09 03:22 132 4.4
2019-Dec-09 03:17 136 4.4
2019-Dec-09 03:12 149 3.9
2019-Dec-09 03:07 192 3.9
2019-Dec-09 03:02 205 3.9
2019-Dec-09 02:57 205 3.9
2019-Dec-09 02:52 205 3.9
2019-Dec-09 02:47 205 3.9
2019-Dec-09 02:42 205 3.9
2019-Dec-09 02:37 205 3.9
2019-Dec-09 02:32 206 3.9
2019-Dec-09 02:27 223 3.3
2019-Dec-09 02:22 223 3.3
2019-Dec-09 02:17 223 3.3
2019-Dec-09 02:12 223 2.8
2019-Dec-09 02:07 223 2.8
2019-Dec-09 02:02 223 2.8
2019-Dec-09 02:00 223 2.2
2019-Dec-09 01:52 223 2.8
2019-Dec-09 01:47 223 2.8
2019-Dec-09 01:45 223 2.8
2019-Dec-09 01:37 223 3.3
2019-Dec-09 01:32 223 3.3
2019-Dec-09 01:30 223 3.3
2019-Dec-09 01:22 223 3.3
2019-Dec-09 01:17 223 3.9
2019-Dec-09 01:12 223 3.9
2019-Dec-09 01:07 223 3.9
2019-Dec-09 01:02 219 3.9
2019-Dec-09 00:57 229 3.9
2019-Dec-09 00:52 223 4.4
2019-Dec-09 00:48 229 0 gusting 2 3.9
2019-Dec-09 00:42 195 4.4
2019-Dec-09 00:37 233 4.4
2019-Dec-09 00:32 224 1 gusting 5 4.4
2019-Dec-09 00:27 229 0 gusting 5 4.4
2019-Dec-09 00:22 238 1 gusting 4 4.4
2019-Dec-09 00:17 211 1 gusting 5 4.4
2019-Dec-09 00:12 224 1 gusting 5 4.4
2019-Dec-09 00:07 226 1 gusting 3 4.4
2019-Dec-09 00:02 218 0 gusting 6 4.4
2019-Dec-08 23:57 245 1 gusting 6 4.4
2019-Dec-08 23:52 225 2 gusting 5 4.4
2019-Dec-08 23:47 230 1 gusting 4 4.4
2019-Dec-08 23:45 212 1 gusting 4 4.4
2019-Dec-08 23:37 245 1 gusting 5 4.4
2019-Dec-08 23:32 220 1 gusting 6 4.4
2019-Dec-08 23:30 229 2 gusting 6 4.4
2019-Dec-08 23:22 231 1 gusting 3 4.4
2019-Dec-08 23:17 229 0 gusting 5 4.4
2019-Dec-08 23:15 219 1 gusting 5 4.4
2019-Dec-08 23:07 217 2 gusting 6 4.4
2019-Dec-08 23:02 186 1 gusting 6 4.4
2019-Dec-08 22:57 143 2 gusting 6 4.4
2019-Dec-08 22:52 231 4 gusting 6 4.4
2019-Dec-08 22:47 232 3 gusting 8 4.4
2019-Dec-08 22:42 235 1 gusting 8 4.4
2019-Dec-08 22:37 227 3 gusting 7 4.4
2019-Dec-08 22:32 234 3 gusting 7 4.4
2019-Dec-08 22:30 219 1 gusting 5 4.4
2019-Dec-08 22:22 233 1 gusting 8 4.4
2019-Dec-08 22:17 224 3 gusting 8 4.4
2019-Dec-08 22:12 129 2 gusting 8 4.4
2019-Dec-08 22:07 226 4 gusting 12 4.4
2019-Dec-08 22:02 224 4 gusting 12 4.4
2019-Dec-08 21:57 252 3 gusting 10 4.4
2019-Dec-08 21:52 209 4 gusting 10 4.4
2019-Dec-08 21:47 234 2 gusting 9 4.4
2019-Dec-08 21:42 123 4 gusting 9 4.4
2019-Dec-08 21:37 229 3 gusting 11 4.4
2019-Dec-08 21:32 234 3 gusting 8 4.4
2019-Dec-08 21:27 226 3 gusting 10 4.4
2019-Dec-08 21:22 211 3 gusting 8 4.4
2019-Dec-08 21:17 217 4 gusting 11 4.4
2019-Dec-08 21:12 206 1 gusting 11 4.4
2019-Dec-08 21:07 161 6 gusting 10 4.4
2019-Dec-08 21:02 211 3 gusting 12 4.4
2019-Dec-08 20:57 195 4 gusting 12 5.0
2019-Dec-08 20:52 235 4 gusting 11 5.0
2019-Dec-08 20:47 211 5 gusting 11 5.0
2019-Dec-08 20:42 250 2 gusting 8 5.0
2019-Dec-08 20:37 243 3 gusting 12 5.0
2019-Dec-08 20:32 221 4 gusting 9 5.0
2019-Dec-08 20:30 208 4 gusting 13 4.4
2019-Dec-08 20:22 184 6 gusting 13 5.0
2019-Dec-08 20:17 203 6 gusting 12 5.0
2019-Dec-08 20:15 175 6 gusting 12 5.0
2019-Dec-08 20:07 171 5 gusting 13 5.0
2019-Dec-08 20:03 199 4 gusting 13 5.0
2019-Dec-08 19:57 150 2 gusting 8 5.0
2019-Dec-08 19:52 179 4 gusting 13 5.0
2019-Dec-08 19:47 232 6 gusting 9 5.0
2019-Dec-08 19:42 167 5 gusting 9 5.0
2019-Dec-08 19:37 223 4 gusting 8 5.0
2019-Dec-08 19:32 238 1 gusting 10 5.0
2019-Dec-08 19:27 215 6 gusting 10 5.0
2019-Dec-08 19:22 224 5 gusting 13 5.0
2019-Dec-08 19:17 214 5 gusting 11 5.0
2019-Dec-08 19:12 221 3 gusting 9 5.0
2019-Dec-08 19:07 204 4 gusting 10 5.0
2019-Dec-08 19:02 242 5 gusting 10 5.0
2019-Dec-08 18:57 254 3 gusting 11 5.0
2019-Dec-08 18:52 219 5 gusting 11 5.0
2019-Dec-08 18:47 240 5 gusting 11 5.0
2019-Dec-08 18:42 228 3 gusting 12 5.0
2019-Dec-08 18:37 208 6 gusting 12 5.0
2019-Dec-08 18:32 217 3 gusting 11 5.0
2019-Dec-08 18:27 124 4 gusting 11 5.0
2019-Dec-08 18:22 151 6 gusting 10 5.0
2019-Dec-08 18:17 248 6 gusting 10 5.0
2019-Dec-08 18:12 165 2 gusting 10 5.0
2019-Dec-08 18:07 240 3 gusting 10 4.4
2019-Dec-08 18:02 221 6 gusting 10 4.4
2019-Dec-08 18:00 216 3 gusting 10 4.4
2019-Dec-08 17:52 219 5 gusting 10 4.4
2019-Dec-08 17:47 174 3 gusting 8 4.4
2019-Dec-08 17:42 141 3 gusting 9 4.4
2019-Dec-08 17:37 217 4 gusting 9 4.4
2019-Dec-08 17:32 171 3 gusting 9 4.4
2019-Dec-08 17:27 169 3 gusting 11 4.4
2019-Dec-08 17:22 153 4 gusting 11 4.4
2019-Dec-08 17:17 206 3 gusting 12 4.4
2019-Dec-08 17:12 226 5 gusting 12 4.4
2019-Dec-08 17:07 217 4 gusting 10 4.4
2019-Dec-08 17:02 222 5 gusting 8 4.4
2019-Dec-08 16:57 226 2 gusting 9 3.9
2019-Dec-08 16:52 258 5 gusting 9 3.9
2019-Dec-08 16:47 155 1 gusting 6 3.9
2019-Dec-08 16:42 214 2 gusting 8 3.9
2019-Dec-08 16:37 207 5 gusting 10 3.3
2019-Dec-08 16:32 166 4 gusting 10 3.3
2019-Dec-08 16:27 164 4 gusting 8 3.3
2019-Dec-08 16:22 229 2 gusting 7 3.3
2019-Dec-08 16:17 115 2 gusting 7 2.8
2019-Dec-08 16:12 138 5 gusting 8 2.8
2019-Dec-08 16:07 162 4 gusting 8 2.8
2019-Dec-08 16:02 150 3 gusting 7 2.8
2019-Dec-08 15:57 174 3 gusting 6 2.8
2019-Dec-08 15:47 207 2 gusting 6 2.2
2019-Dec-08 15:42 157 3 gusting 6 2.2
2019-Dec-08 15:37 219 1 gusting 6 2.2
2019-Dec-08 15:32 110 3 gusting 6 2.2
2019-Dec-08 15:27 230 2 gusting 6 1.7
2019-Dec-08 15:22 104 3 gusting 6 1.7
2019-Dec-08 15:17 069 1 gusting 6 1.7
2019-Dec-08 15:15 093 1 gusting 6 1.1
2019-Dec-08 15:07 131 1 gusting 6 1.1
2019-Dec-08 15:02 160 1 gusting 6 1.1
2019-Dec-08 14:57 159 1 gusting 5 1.1
2019-Dec-08 14:52 122 3 gusting 5 1.1
2019-Dec-08 14:47 198 2 gusting 4 0.6
2019-Dec-08 14:42 067 1 gusting 4 0.6
2019-Dec-08 14:37 128 2 gusting 4 0.6
2019-Dec-08 14:32 086 1 gusting 3 0.6
2019-Dec-08 14:27 115 0 gusting 3 -0.0
2019-Dec-08 14:22 154 1 gusting 4 -0.0
2019-Dec-08 14:17 136 1 gusting 4 -0.0
2019-Dec-08 14:15 115 0 gusting 4 -0.0
2019-Dec-08 14:07 110 1 gusting 3 -0.0
2019-Dec-08 14:02 114 0 gusting 4 -0.0
2019-Dec-08 13:57 146 2 gusting 4 -0.6
2019-Dec-08 13:52 163 1 gusting 3 -0.6
2019-Dec-08 13:47 141 0 gusting 5 -0.6
2019-Dec-08 13:42 138 1 gusting 5 -0.6
2019-Dec-08 13:37 141 0 gusting 2 -0.6
2019-Dec-08 13:32 113 -0.6
2019-Dec-08 13:27 056 0 gusting 3 -0.6
2019-Dec-08 13:22 134 0 gusting 3 -1.1
2019-Dec-08 13:17 126 0 gusting 3 -1.1
2019-Dec-08 13:12 144 0 gusting 3 -1.1
2019-Dec-08 13:07 118 1 gusting 3 -1.1
2019-Dec-08 13:02 152 -1.1
2019-Dec-08 12:57 137 -1.1
2019-Dec-08 12:52 148 -1.7
2019-Dec-08 12:47 147 -1.7
2019-Dec-08 12:42 131 -2.2
2019-Dec-08 12:37 136 -2.2
2019-Dec-08 12:32 153 -2.2
2019-Dec-08 12:30 172 -2.8
2019-Dec-08 12:22 150 0 gusting 2 -2.2
2019-Dec-08 12:17 132 -2.2
2019-Dec-08 12:12 041 -2.2
2019-Dec-08 12:07 084 -2.8
2019-Dec-08 12:02 150 -2.8
2019-Dec-08 11:57 128 -2.8
2019-Dec-08 11:52 146 -2.8
2019-Dec-08 11:47 156 -2.8
2019-Dec-08 11:42 140 -2.8
2019-Dec-08 11:37 148 -2.8
2019-Dec-08 11:32 143 -2.8
2019-Dec-08 11:27 129 -2.8
2019-Dec-08 11:22 149 -2.8
2019-Dec-08 11:17 151 -2.8
2019-Dec-08 11:12 141 -2.8
2019-Dec-08 11:07 148 0 gusting 1 -2.8
2019-Dec-08 11:02 173 -2.8
2019-Dec-08 11:00 158 -3.3
2019-Dec-08 10:52 148 -2.8
2019-Dec-08 10:47 218 -2.8
2019-Dec-08 10:45 218 -3.3
2019-Dec-08 10:37 218 -2.8
2019-Dec-08 10:32 218 -2.8
2019-Dec-08 10:27 200 -2.8
2019-Dec-08 10:22 171 -2.8
2019-Dec-08 10:17 150 -3.3
2019-Dec-08 10:12 122 -2.8
2019-Dec-08 10:07 224 -2.8
2019-Dec-08 10:02 224 -2.8
2019-Dec-08 09:57 224 -2.8
2019-Dec-08 09:52 224 -2.8
2019-Dec-08 09:47 226 -2.2
2019-Dec-08 09:42 221 -2.8
2019-Dec-08 09:37 221 -2.8
2019-Dec-08 09:32 221 -2.2
2019-Dec-08 09:27 224 -2.2
2019-Dec-08 09:22 231 -2.2
2019-Dec-08 09:17 229 -2.2
2019-Dec-08 09:12 196 -2.2
2019-Dec-08 09:07 195 -2.2
2019-Dec-08 09:02 168 -2.2
2019-Dec-08 08:57 118 0 gusting 2 -2.2
2019-Dec-08 08:52 144 0 gusting 2 -2.2
2019-Dec-08 08:47 136 -2.2
2019-Dec-08 08:45 148 0 gusting 3 -2.2
2019-Dec-08 08:37 166 0 gusting 2 -2.2
2019-Dec-08 08:32 165 0 gusting 2 -1.7
2019-Dec-08 08:27 158 -1.7
2019-Dec-08 08:22 126 1 gusting 2 -1.7
2019-Dec-08 08:17 124 0 gusting 3 -2.2
2019-Dec-08 08:12 180 -1.7
2019-Dec-08 08:07 142 1 gusting 3 -1.7
2019-Dec-08 08:02 126 -1.7
2019-Dec-08 07:57 136 1 gusting 4 -1.7
2019-Dec-08 07:52 181 -1.7
2019-Dec-08 07:47 120 0 gusting 2 -1.1
2019-Dec-08 07:42 065 -1.1
2019-Dec-08 07:37 067 0 gusting 3 -1.1
2019-Dec-08 07:32 167 0 gusting 3 -1.1
2019-Dec-08 07:27 027 -0.6
2019-Dec-08 07:22 073 0 gusting 4 -0.6
2019-Dec-08 07:17 067 2 gusting 5 -0.6
2019-Dec-08 07:12 037 0 gusting 3 -1.1
2019-Dec-08 07:07 046 1 gusting 4 -1.1
2019-Dec-08 07:02 037 1 gusting 4 -1.1
2019-Dec-08 06:57 039 2 gusting 4 -1.1
2019-Dec-08 06:52 041 2 gusting 4 -1.1
2019-Dec-08 06:47 001 2 gusting 4 -0.6
2019-Dec-08 06:45 028 1 gusting 4 -1.1
2019-Dec-08 06:37 023 2 gusting 5 -0.6
2019-Dec-08 06:32 012 3 gusting 6 -0.6
2019-Dec-08 06:27 038 2 gusting 6 -0.6
2019-Dec-08 06:22 045 3 gusting 6 -0.6
2019-Dec-08 06:17 053 4 gusting 6 -0.6
2019-Dec-08 06:12 033 5 gusting 6 -0.6
2019-Dec-08 06:07 039 3 gusting 6 -0.6
2019-Dec-08 06:02 032 5 gusting 9 -0.6
2019-Dec-08 05:57 031 5 gusting 9 -0.6
2019-Dec-08 05:52 044 5 gusting 7 -0.6
2019-Dec-08 05:47 013 4 gusting 6 -0.6
2019-Dec-08 05:42 039 5 gusting 6 -0.6
2019-Dec-08 05:37 046 4 gusting 6 -0.6
2019-Dec-08 05:32 034 1 gusting 4 -0.6
2019-Dec-08 05:27 039 1 gusting 4 -0.6
2019-Dec-08 05:22 359 2 gusting 4 -0.6
2019-Dec-08 05:17 022 2 gusting 4 -0.6
2019-Dec-08 05:12 011 1 gusting 4 -0.6
2019-Dec-08 05:07 037 1 gusting 5 -0.6
2019-Dec-08 05:02 340 2 gusting 5 -0.6
2019-Dec-08 04:57 048 2 gusting 6 -0.6
2019-Dec-08 04:52 320 2 gusting 6 -0.6
2019-Dec-08 04:47 355 3 gusting 6 -0.6
2019-Dec-08 04:42 318 2 gusting 6 -0.6
2019-Dec-08 04:37 319 3 gusting 7 -0.0
2019-Dec-08 04:32 343 3 gusting 7 -0.0
2019-Dec-08 04:27 352 3 gusting 6 -0.0
2019-Dec-08 04:22 326 2 gusting 6 -0.0
2019-Dec-08 04:17 332 2 gusting 6 -0.0
2019-Dec-08 04:12 019 2 gusting 7 -0.0
2019-Dec-08 04:07 334 2 gusting 7 -0.0
2019-Dec-08 04:02 310 4 gusting 6 -0.6
2019-Dec-08 03:57 313 3 gusting 6 -0.0
2019-Dec-08 03:52 331 3 gusting 7 -0.0
2019-Dec-08 03:47 283 4 gusting 7 -0.0
2019-Dec-08 03:42 333 5 gusting 8 -0.0
2019-Dec-08 03:37 354 4 gusting 8 -0.0
2019-Dec-08 03:32 276 6 gusting 8 -0.0
2019-Dec-08 03:27 329 5 gusting 8 -0.0
2019-Dec-08 03:22 332 5 gusting 8 -0.0
2019-Dec-08 03:17 008 3 gusting 6 0.6
2019-Dec-08 03:12 346 4 gusting 9 0.6
2019-Dec-08 03:07 312 4 gusting 9 0.6
2019-Dec-08 03:02 326 4 gusting 9 0.6
2019-Dec-08 03:00 030 3 gusting 9 -0.0
2019-Dec-08 02:52 034 5 gusting 8 0.6
2019-Dec-08 02:47 022 3 gusting 10 0.6
2019-Dec-08 02:42 049 5 gusting 10 0.6
2019-Dec-08 02:37 048 4 gusting 7 0.6
2019-Dec-08 02:32 296 4 gusting 7 0.6
2019-Dec-08 02:27 346 5 gusting 8 0.6
2019-Dec-08 02:22 327 5 gusting 11 0.6
2019-Dec-08 02:17 324 7 gusting 11 0.6
2019-Dec-08 02:12 340 6 gusting 10 0.6
2019-Dec-08 02:07 342 6 gusting 10 0.6
2019-Dec-08 02:02 318 3 gusting 10 0.6
2019-Dec-08 01:57 323 6 gusting 11 0.6
2019-Dec-08 01:52 354 7 gusting 10 1.1
2019-Dec-08 01:47 342 5 gusting 10 0.6
2019-Dec-08 01:42 336 6 gusting 9 1.1
2019-Dec-08 01:37 345 6 gusting 12 1.1
2019-Dec-08 01:32 316 7 gusting 12 1.1
2019-Dec-08 01:27 005 6 gusting 11 1.1
2019-Dec-08 01:22 348 6 gusting 13 1.1
2019-Dec-08 01:17 349 6 gusting 13 1.1
2019-Dec-08 01:12 321 7 gusting 12 1.1
2019-Dec-08 01:07 298 6 gusting 10 1.1
2019-Dec-08 01:02 330 5 gusting 10 1.1
2019-Dec-08 00:57 001 6 gusting 9 1.1
2019-Dec-08 00:52 311 6 gusting 11 1.1
2019-Dec-08 00:47 346 6 gusting 11 1.1
2019-Dec-08 00:42 330 5 gusting 11 1.1
2019-Dec-08 00:37 285 6 gusting 11 1.1
2019-Dec-08 00:32 348 6 gusting 11 1.1
2019-Dec-08 00:27 328 6 gusting 11 1.1
2019-Dec-08 00:22 344 6 gusting 11 1.1
2019-Dec-08 00:17 323 6 gusting 10 1.1
2019-Dec-08 00:12 305 6 gusting 13 1.1
2019-Dec-08 00:07 312 6 gusting 13 1.7
2019-Dec-08 00:02 329 6 gusting 11 1.7
2019-Dec-07 23:57 337 6 gusting 12 1.7
2019-Dec-07 23:52 321 8 gusting 12 1.7
2019-Dec-07 23:47 326 7 gusting 11 1.7
2019-Dec-07 23:42 009 6 gusting 12 1.7
2019-Dec-07 23:37 325 6 gusting 9 1.7
2019-Dec-07 23:32 300 5 gusting 10 1.7
2019-Dec-07 23:27 337 6 gusting 10 1.7
2019-Dec-07 23:22 350 3 gusting 6 1.7
2019-Dec-07 23:17 330 2 gusting 11 1.7
2019-Dec-07 23:12 288 5 gusting 11 1.7
2019-Dec-07 23:07 352 1 gusting 6 2.2
2019-Dec-07 23:02 046 1 gusting 6 2.2
2019-Dec-07 23:00 345 1 gusting 7 1.7